• En España
  • Lista de países
  • Para 7 días
  • Temperatura del agua
  • Mapa Satelital
  • El tiempo en el mapa
  • Informadores
  • user-avatar
    Iniciar sesión

    Tiempo cada hora Algiers

    Hoy, 20 Febrero, Martes

    Tiempo Temperatura Precipitaciones Viento Presión Humedad
    00:00 +10°C° 0 mm 1 mps 748 mmHg 92%
    01:00 +9°C° 0 mm 1 mps 748 mmHg 92%
    02:00 +9°C° 0 mm 1 mps 748 mmHg 92%
    03:00 +8°C° 0 mm 2 mps 748 mmHg 92%
    04:00 +8°C° 0 mm 2 mps 747 mmHg 91%
    05:00 +7°C° 0 mm 2 mps 747 mmHg 90%
    06:00 +7°C° 0 mm 3 mps 747 mmHg 89%
    07:00 +9°C° 0 mm 3 mps 747 mmHg 82%
    08:00 +10°C° 0 mm 4 mps 747 mmHg 75%
    09:00 +12°C° 0 mm 4 mps 747 mmHg 68%
    10:00 +13°C° 0 mm 5 mps 747 mmHg 63%
    11:00 +14°C° 0 mm 5 mps 747 mmHg 58%
    12:00 +15°C° 0 mm 6 mps 747 mmHg 53%
    13:00 +15°C° 0,1 mm 6 mps 746 mmHg 55%
    14:00 +15°C° 0,1 mm 7 mps 746 mmHg 57%
    15:00 +15°C° 0,1 mm 7 mps 745 mmHg 59%
    16:00 +14°C° 0,1 mm 7 mps 745 mmHg 67%
    17:00 +11°C° 0,1 mm 6 mps 745 mmHg 75%
    18:00 +10°C° 0,1 mm 6 mps 745 mmHg 83%
    19:00 +10°C° 0 mm 6 mps 745 mmHg 85%
    20:00 +10°C° 0 mm 5 mps 745 mmHg 87%
    21:00 +10°C° 0 mm 5 mps 745 mmHg 89%
    22:00 +9°C° 0,2 mm 5 mps 745 mmHg 89%
    23:00 +9°C° 0,2 mm 5 mps 745 mmHg 89%

    Mañana, 21 Febrero, Miércoles

    Tiempo Temperatura Precipitaciones Viento Presión Humedad
    00:00 +9°C° 0,2 mm 5 mps 745 mmHg 88%
    01:00 +10°C° 0,6 mm 5 mps 744 mmHg 87%
    02:00 +10°C° 0,6 mm 5 mps 744 mmHg 87%
    03:00 +11°C° 0,6 mm 4 mps 743 mmHg 86%
    04:00 +10°C° 1,1 mm 4 mps 743 mmHg 86%
    05:00 +10°C° 1,1 mm 3 mps 742 mmHg 86%
    06:00 +10°C° 1,1 mm 3 mps 742 mmHg 87%
    07:00 +10°C° 1,4 mm 2 mps 742 mmHg 85%
    08:00 +12°C° 1,4 mm 2 mps 742 mmHg 83%
    09:00 +12°C° 1,4 mm 1 mps 742 mmHg 81%
    10:00 +13°C° 1 mm 2 mps 742 mmHg 79%
    11:00 +12°C° 1 mm 3 mps 741 mmHg 77%
    12:00 +13°C° 1 mm 4 mps 741 mmHg 74%
    13:00 +12°C° 0,6 mm 5 mps 741 mmHg 78%
    14:00 +11°C° 0,6 mm 6 mps 741 mmHg 81%
    15:00 +10°C° 0,6 mm 7 mps 740 mmHg 85%
    16:00 +10°C° 0,4 mm 7 mps 740 mmHg 86%
    17:00 +9°C° 0,4 mm 6 mps 740 mmHg 88%
    18:00 +8°C° 0,4 mm 6 mps 741 mmHg 90%
    19:00 +8°C° 0,4 mm 5 mps 741 mmHg 89%
    20:00 +7°C° 0,4 mm 4 mps 741 mmHg 89%
    21:00 +8°C° 0,4 mm 3 mps 742 mmHg 89%
    22:00 +8°C° 0,1 mm 2 mps 742 mmHg 88%
    23:00 +9°C° 0,1 mm 1 mps 741 mmHg 87%

    Pasado mañana, 22 Febrero, Jueves

    Tiempo Temperatura Precipitaciones Viento Presión Humedad
    00:00 +9°C° 0,1 mm 1 mps 741 mmHg 86%
    01:00 +8°C° 0 mm 1 mps 741 mmHg 86%
    02:00 +8°C° 0 mm 1 mps 741 mmHg 86%
    03:00 +8°C° 0 mm 1 mps 741 mmHg 86%
    04:00 +7°C° 0,2 mm 2 mps 740 mmHg 86%
    05:00 +6°C° 0,2 mm 2 mps 740 mmHg 86%
    06:00 +6°C° 0,2 mm 2 mps 740 mmHg 87%
    07:00 +7°C° 0,4 mm 3 mps 741 mmHg 83%
    08:00 +8°C° 0,4 mm 3 mps 741 mmHg 80%
    09:00 +9°C° 0,4 mm 3 mps 741 mmHg 77%
    10:00 +9°C° 0,6 mm 3 mps 741 mmHg 75%
    11:00 +10°C° 0,6 mm 3 mps 741 mmHg 72%
    12:00 +10°C° 0,6 mm 4 mps 741 mmHg 70%
    13:00 +10°C° 0,5 mm 4 mps 741 mmHg 72%
    14:00 +10°C° 0,5 mm 4 mps 740 mmHg 73%
    15:00 +10°C° 0,5 mm 4 mps 740 mmHg 75%
    16:00 +8°C° 0,2 mm 4 mps 740 mmHg 79%
    17:00 +8°C° 0,2 mm 3 mps 740 mmHg 83%
    18:00 +7°C° 0,2 mm 3 mps 740 mmHg 86%
    19:00 +7°C° 0,4 mm 3 mps 741 mmHg 87%
    20:00 +7°C° 0,4 mm 2 mps 741 mmHg 88%
    21:00 +6°C° 0,4 mm 2 mps 741 mmHg 89%
    22:00 +6°C° 0,2 mm 2 mps 741 mmHg 89%
    23:00 +6°C° 0,2 mm 2 mps 741 mmHg 89%

    23 Febrero, Viernes

    Tiempo Temperatura Precipitaciones Viento Presión Humedad
    00:00 +6°C° 0,2 mm 1 mps 741 mmHg 89%
    01:00 +5°C° 0,1 mm 2 mps 741 mmHg 88%
    02:00 +5°C° 0,1 mm 2 mps 741 mmHg 86%
    03:00 +5°C° 0,1 mm 2 mps 741 mmHg 85%
    04:00 +5°C° 0 mm 2 mps 741 mmHg 84%
    05:00 +4°C° 0 mm 2 mps 741 mmHg 82%
    06:00 +4°C° 0 mm 2 mps 741 mmHg 80%
    07:00 +6°C° 0 mm 2 mps 741 mmHg 73%
    08:00 +8°C° 0 mm 2 mps 742 mmHg 66%
    09:00 +9°C° 0 mm 2 mps 742 mmHg 60%
    10:00 +11°C° 0 mm 1 mps 742 mmHg 56%
    11:00 +12°C° 0 mm 1 mps 742 mmHg 52%
    12:00 +13°C° 0 mm 1 mps 742 mmHg 49%
    13:00 +13°C° 0 mm 1 mps 742 mmHg 51%
    14:00 +13°C° 0 mm 2 mps 742 mmHg 52%
    15:00 +13°C° 0 mm 2 mps 742 mmHg 54%
    16:00 +11°C° 0,1 mm 3 mps 742 mmHg 62%
    17:00 +10°C° 0,1 mm 3 mps 742 mmHg 70%
    18:00 +8°C° 0,1 mm 3 mps 742 mmHg 78%
    19:00 +8°C° 0 mm 3 mps 742 mmHg 80%
    20:00 +7°C° 0 mm 3 mps 743 mmHg 82%
    21:00 +7°C° 0 mm 3 mps 743 mmHg 83%
    22:00 +7°C° 0 mm 3 mps 743 mmHg 83%
    23:00 +7°C° 0 mm 3 mps 743 mmHg 82%

    24 Febrero, Sábado

    Tiempo Temperatura Precipitaciones Viento Presión Humedad
    00:00 +7°C° 0 mm 3 mps 742 mmHg 81%
    01:00 +6°C° 0 mm 4 mps 742 mmHg 79%
    02:00 +6°C° 0 mm 4 mps 742 mmHg 76%
    03:00 +6°C° 0 mm 4 mps 742 mmHg 73%
    04:00 +6°C° 0 mm 4 mps 741 mmHg 72%
    05:00 +6°C° 0 mm 4 mps 741 mmHg 70%
    06:00 +6°C° 0 mm 4 mps 741 mmHg 69%
    07:00 +8°C° 0 mm 4 mps 742 mmHg 64%
    08:00 +10°C° 0 mm 4 mps 742 mmHg 60%
    09:00 +12°C° 0 mm 4 mps 742 mmHg 55%
    10:00 +13°C° 0 mm 4 mps 742 mmHg 52%
    11:00 +14°C° 0 mm 4 mps 741 mmHg 50%
    12:00 +15°C° 0 mm 4 mps 741 mmHg 48%
    13:00 +15°C° 0 mm 4 mps 741 mmHg 48%
    14:00 +15°C° 0 mm 4 mps 740 mmHg 48%
    15:00 +15°C° 0 mm 4 mps 740 mmHg 48%
    16:00 +14°C° 0 mm 4 mps 740 mmHg 55%
    17:00 +13°C° 0 mm 4 mps 741 mmHg 61%
    18:00 +11°C° 0 mm 4 mps 741 mmHg 67%
    19:00 +11°C° 0 mm 3 mps 741 mmHg 70%
    20:00 +10°C° 0 mm 3 mps 742 mmHg 73%
    21:00 +10°C° 0 mm 2 mps 742 mmHg 75%
    22:00 +10°C° 0 mm 2 mps 743 mmHg 78%
    23:00 +9°C° 0 mm 2 mps 743 mmHg 81%

    25 Febrero, Domingo

    Tiempo Temperatura Precipitaciones Viento Presión Humedad
    00:00 +10°C° 0 mm 1 mps 743 mmHg 84%
    01:00 +8°C° 0 mm 2 mps 743 mmHg 86%
    02:00 +8°C° 0 mm 2 mps 743 mmHg 88%
    03:00 +8°C° 0 mm 3 mps 743 mmHg 89%
    04:00 +8°C° 0,1 mm 3 mps 743 mmHg 90%
    05:00 +8°C° 0,1 mm 3 mps 744 mmHg 91%
    06:00 +7°C° 0,1 mm 4 mps 744 mmHg 91%
    07:00 +8°C° 0,1 mm 4 mps 744 mmHg 85%
    08:00 +10°C° 0,1 mm 4 mps 745 mmHg 78%
    09:00 +11°C° 0,1 mm 4 mps 745 mmHg 72%
    10:00 +12°C° 0,1 mm 4 mps 745 mmHg 66%
    11:00 +13°C° 0,1 mm 5 mps 745 mmHg 61%
    12:00 +14°C° 0,1 mm 5 mps 745 mmHg 56%
    13:00 +14°C° 0,1 mm 5 mps 745 mmHg 56%
    14:00 +14°C° 0,1 mm 5 mps 745 mmHg 56%
    15:00 +14°C° 0,1 mm 5 mps 745 mmHg 56%
    16:00 +13°C° 0 mm 4 mps 745 mmHg 62%
    17:00 +11°C° 0 mm 4 mps 745 mmHg 69%
    18:00 +10°C° 0 mm 3 mps 745 mmHg 76%
    19:00 +9°C° 0 mm 3 mps 746 mmHg 78%
    20:00 +9°C° 0 mm 2 mps 746 mmHg 80%
    21:00 +8°C° 0 mm 2 mps 746 mmHg 82%
    22:00 +8°C° 0 mm 2 mps 746 mmHg 82%
    23:00 +8°C° 0 mm 2 mps 745 mmHg 81%
    Mostrar más